TimeCDT,TemperatureF,Dew PointF,Humidity,Sea Level PressureIn,VisibilityMPH,Wind Direction,Wind SpeedMPH,Gust SpeedMPH,PrecipitationIn,Events,Conditions,WindDirDegrees,DateUTC
12:15 AM,50.0,48.2,94,30.05,8.0,NW,18.4,-,0.11,,Overcast,320,2013-05-03 05:15:00
12:35 AM,50.0,48.2,94,30.05,7.0,NW,15.0,-,0.19,,Mostly Cloudy,320,2013-05-03 05:35:00
12:55 AM,50.0,48.2,94,30.05,10.0,NW,18.4,-,0.24,,Overcast,320,2013-05-03 05:55:00
1:15 AM,48.2,46.4,93,30.04,10.0,NW,15.0,-,0.03,,Overcast,320,2013-05-03 06:15:00
1:35 AM,48.2,46.4,93,30.04,10.0,NW,16.1,-,0.08,,Overcast,320,2013-05-03 06:35:00
1:55 AM,48.2,46.4,93,30.03,10.0,NW,18.4,-,0.13,,Overcast,320,2013-05-03 06:55:00
2:15 AM,48.2,46.4,93,30.02,10.0,NW,18.4,-,0.02,,Mostly Cloudy,320,2013-05-03 07:15:00
2:35 AM,46.4,44.6,93,30.00,10.0,NW,20.7,25.3,0.03,,Overcast,320,2013-05-03 07:35:00
2:55 AM,46.4,42.8,87,30.00,10.0,NW,19.6,-,0.07,,Overcast,320,2013-05-03 07:55:00
3:15 AM,44.6,42.8,93,30.00,10.0,NW,21.9,-,0.03,,Overcast,320,2013-05-03 08:15:00
3:35 AM,44.6,42.8,93,30.00,10.0,NW,19.6,-,0.05,,Overcast,320,2013-05-03 08:35:00
3:55 AM,44.6,42.8,93,30.00,10.0,NW,18.4,21.9,0.05,,Overcast,320,2013-05-03 08:55:00
4:15 AM,44.6,42.8,93,30.00,10.0,NW,18.4,24.2,0.03,,Overcast,320,2013-05-03 09:15:00
4:35 AM,44.6,42.8,93,30.00,10.0,NW,18.4,-,0.05,,Overcast,310,2013-05-03 09:35:00
4:55 AM,42.8,41.0,93,29.99,10.0,NW,20.7,26.5,0.08,,Overcast,320,2013-05-03 09:55:00
5:15 AM,-9999,-9999,N/A,29.98,10.0,NW,20.7,-,0.04,,Overcast,320,2013-05-03 10:15:00
5:35 AM,42.8,39.2,87,29.99,10.0,NW,20.7,25.3,0.06,,Overcast,320,2013-05-03 10:35:00
5:55 AM,42.8,39.2,87,29.99,10.0,NW,16.1,-,0.15,,Mostly Cloudy,320,2013-05-03 10:55:00
6:15 AM,42.8,39.2,87,29.99,10.0,NW,17.3,-,0.10,,Mostly Cloudy,320,2013-05-03 11:15:00
6:35 AM,41.0,39.2,93,29.99,10.0,NW,17.3,-,0.18,,Mostly Cloudy,320,2013-05-03 11:35:00
6:55 AM,41.0,39.2,93,29.98,9.0,NW,17.3,-,0.26,,Mostly Cloudy,320,2013-05-03 11:55:00
7:15 AM,41.0,39.2,93,29.98,9.0,NW,18.4,-,0.03,,Overcast,320,2013-05-03 12:15:00
7:35 AM,41.0,39.2,93,29.99,10.0,NW,17.3,-,0.06,,Overcast,320,2013-05-03 12:35:00
7:55 AM,39.2,37.4,93,29.98,10.0,NW,18.4,-,0.08,,Overcast,320,2013-05-03 12:55:00
8:15 AM,39.2,37.4,93,29.98,10.0,NW,17.3,-,0.06,,Overcast,320,2013-05-03 13:15:00
8:35 AM,39.2,37.4,93,29.98,9.0,NW,17.3,20.7,0.18,,Overcast,320,2013-05-03 13:35:00
8:55 AM,39.2,37.4,93,29.97,10.0,NW,12.7,19.6,0.27,,Overcast,320,2013-05-03 13:55:00
9:15 AM,39.2,39.2,100,29.96,8.0,NNW,13.8,-,0.07,,Overcast,330,2013-05-03 14:15:00
9:35 AM,39.2,39.2,100,29.96,10.0,NW,12.7,-,0.13,,Overcast,320,2013-05-03 14:35:00
9:55 AM,41.0,39.2,93,29.96,9.0,NW,11.5,-,0.16,,Overcast,320,2013-05-03 14:55:00
10:15 AM,41.0,39.2,93,29.96,7.0,NW,12.7,-,0.05,,Overcast,310,2013-05-03 15:15:00
10:35 AM,39.2,39.2,100,29.95,10.0,NW,10.4,-,0.14,,Overcast,310,2013-05-03 15:35:00
10:55 AM,39.2,37.4,93,29.96,5.0,WNW,15.0,19.6,0.16,,Overcast,300,2013-05-03 15:55:00
11:15 AM,39.2,37.4,93,29.97,5.0,WNW,12.7,-,0.02,,Overcast,290,2013-05-03 16:15:00
11:35 AM,41.0,37.4,87,29.96,10.0,WNW,10.4,-,0.08,,Overcast,300,2013-05-03 16:35:00
11:55 AM,41.0,39.2,93,29.95,9.0,NW,11.5,-,0.11,,Mostly Cloudy,310,2013-05-03 16:55:00
12:15 PM,41.0,39.2,93,29.94,10.0,NW,10.4,-,0.03,,Mostly Cloudy,310,2013-05-03 17:15:00
12:35 PM,41.0,39.2,93,29.96,9.0,WNW,12.7,-,0.06,,Overcast,290,2013-05-03 17:35:00
12:55 PM,41.0,39.2,93,29.94,8.0,NW,15.0,-,0.08,,Overcast,310,2013-05-03 17:55:00
1:15 PM,41.0,39.2,93,29.93,7.0,WNW,15.0,-,0.04,,Overcast,300,2013-05-03 18:15:00
1:35 PM,42.8,39.2,87,29.95,10.0,WNW,15.0,-,0.05,,Overcast,290,2013-05-03 18:35:00
1:55 PM,42.8,39.2,87,29.94,10.0,WNW,11.5,-,0.08,,Overcast,290,2013-05-03 18:55:00
2:15 PM,42.8,39.2,87,29.95,10.0,West,10.4,-,0.02,,Overcast,270,2013-05-03 19:15:00
2:35 PM,42.8,39.2,87,29.95,10.0,West,10.4,-,0.06,,Overcast,260,2013-05-03 19:35:00
2:55 PM,42.8,39.2,87,29.92,10.0,WNW,16.1,-,0.08,,Overcast,290,2013-05-03 19:55:00
3:15 PM,42.8,39.2,87,29.92,10.0,West,10.4,-,N/A,,Mostly Cloudy,270,2013-05-03 20:15:00
3:35 PM,42.8,39.2,87,29.92,10.0,West,13.8,-,0.01,,Overcast,270,2013-05-03 20:35:00
3:55 PM,42.8,39.2,87,29.92,10.0,West,16.1,21.9,0.01,,Overcast,280,2013-05-03 20:55:00
4:15 PM,42.8,39.2,87,29.92,10.0,WNW,13.8,21.9,N/A,,Overcast,290,2013-05-03 21:15:00
4:35 PM,42.8,39.2,87,29.93,10.0,West,11.5,18.4,N/A,,Overcast,280,2013-05-03 21:35:00
4:55 PM,42.8,37.4,81,29.93,10.0,West,13.8,19.6,N/A,,Overcast,270,2013-05-03 21:55:00
5:15 PM,42.8,39.2,87,29.94,10.0,West,13.8,-,N/A,,Overcast,280,2013-05-03 22:15:00
5:35 PM,42.8,39.2,87,29.94,10.0,West,13.8,-,N/A,,Overcast,260,2013-05-03 22:35:00
5:55 PM,42.8,37.4,81,29.94,6.0,West,11.5,-,N/A,,Overcast,260,2013-05-03 22:55:00
6:15 PM,42.8,39.2,87,29.93,8.0,West,13.8,17.3,N/A,,Overcast,280,2013-05-03 23:15:00
6:35 PM,42.8,37.4,81,29.93,10.0,West,12.7,17.3,N/A,,Overcast,270,2013-05-03 23:35:00
6:55 PM,42.8,37.4,81,29.94,10.0,West,11.5,-,N/A,,Overcast,270,2013-05-03 23:55:00
7:15 PM,42.8,37.4,81,29.95,10.0,WSW,16.1,19.6,N/A,,Overcast,250,2013-05-04 00:15:00
7:35 PM,41.0,37.4,87,29.95,10.0,West,13.8,-,N/A,,Overcast,280,2013-05-04 00:35:00
7:55 PM,41.0,35.6,81,29.96,10.0,West,12.7,17.3,N/A,,Overcast,270,2013-05-04 00:55:00
8:15 PM,42.8,35.6,76,29.96,10.0,West,11.5,-,N/A,,Overcast,260,2013-05-04 01:15:00
8:35 PM,41.0,35.6,81,29.97,10.0,West,13.8,17.3,N/A,,Overcast,270,2013-05-04 01:35:00
8:55 PM,41.0,35.6,81,29.97,10.0,West,10.4,-,N/A,,Overcast,280,2013-05-04 01:55:00
9:15 PM,39.2,35.6,87,29.97,10.0,West,13.8,-,N/A,,Overcast,270,2013-05-04 02:15:00
9:35 PM,39.2,35.6,87,29.98,10.0,West,9.2,-,N/A,,Overcast,270,2013-05-04 02:35:00
9:55 PM,39.2,35.6,87,29.98,10.0,West,10.4,-,N/A,,Mostly Cloudy,260,2013-05-04 02:55:00
10:15 PM,39.2,35.6,87,29.98,10.0,WSW,6.9,-,N/A,,Mostly Cloudy,250,2013-05-04 03:15:00
10:35 PM,39.2,35.6,87,29.97,10.0,WSW,6.9,-,N/A,,Partly Cloudy,250,2013-05-04 03:35:00
10:55 PM,39.2,35.6,87,29.95,10.0,West,8.1,-,N/A,,Clear,260,2013-05-04 03:55:00
11:15 PM,37.4,35.6,93,29.94,10.0,WSW,8.1,-,N/A,,Clear,250,2013-05-04 04:15:00
11:35 PM,37.4,35.6,93,29.94,10.0,West,8.1,-,N/A,,Clear,260,2013-05-04 04:35:00
11:55 PM,37.4,33.8,87,29.94,10.0,West,6.9,-,N/A,,Clear,260,2013-05-04 04:55:00